User: anonymous   Login
Location: Gloden
(48.4833°N, 15.3167°E)
Time: 17:13:10
(UTC+00:00)
Language:

BUGSAT 1 - Orbit

View from above orbital plane
View from above orbital plane
View from above satellite
View from above satellite

Ground track
Ground track

The orbit data is extracted from the following two-line orbital elements,

1 40014U 14033E   21134.10426559  .00000665  00000-0  64978-4 0  9998
2 40014  98.1096 112.4230 0029804 279.7355  80.0508 14.95733566376431
Epoch (UTC): 14 May 2021 02:30:08
Eccentricity: 0.0029804
inclination: 98.1096°
perigee height: 559 km
apogee height: 601 km
right ascension of ascending node: 112.4230°
argument of perigee: 279.7355°
revolutions per day: 14.95733566
mean anomaly at epoch: 80.0508°
orbit number at epoch: 37643

The dashed part of the orbit path shows where the satellite is in the earth's shadow,  

DLR